Regional Weather Roundup
Issued by NWS Charleston, SC

Current Version | Previous Version | Graphics & Text | Print | Product List | Glossary On
Versions: 1 2 3 4 5 6 7 8 9 10 11 12 13 14 15 16 17 18 19 20 21 22 23 24 25 26 27 28 29 30 31 32 33 34 35 36 37 38 39 40 41 42 43 44 45 46 47 48 49 50
000 ASUS42 KCHS 050328 RWRCHS REGIONAL WEATHER ROUNDUP NATIONAL WEATHER SERVICE CHARLESTON SC 1100 PM EDT WED MAY 04 2016 NOTE: "FAIR" INDICATES FEW OR NO CLOUDS BELOW 12,000 FEET WITH NO SIGNIFICANT WEATHER AND/OR OBSTRUCTIONS TO VISIBILITY. NOT ALL STATIONS ARE QUALITY CONTROLLED. USE DATA WITH CAUTION... ESPECIALLY DEWPOINT OBSERVATIONS. SCZ027-030-031-034>040-042>050-050400- ...SOUTHEAST SOUTH CAROLINA... CITY SKY/WX TMP DP RH WIND PRES REMARKS N CHARLESTON PTCLDY 65 48 54 NW8 29.66R WATERFRONT PRK N/A 70 48 45 NW5 29.64R MOUNT PLEASANT FAIR 61 54 77 CALM 29.65S JOHNS ISLAND FAIR 63 52 67 W7 29.66S PINOPOLIS N/A 72 50 46 W9 29.59R MONCKS CORNER FAIR 55 46 71 CALM 29.66S SUMMERVILLE FAIR 59 52 77 CALM 29.67S BEAUFORT MCAS CLEAR 67 48 50 NW7 29.68R BEAUFORT ARPT FAIR 68 48 49 NW8 29.67S HILTON HEAD IS CLEAR 70 50 49 NW5 29.68S WALTERBORO CLEAR 61 50 67 W5 29.68S ALLENDALE FAIR 61 50 67 CALM 29.68S ...SOUTHERN MIDLANDS AND PEE DEE... CITY SKY/WX TMP DP RH WIND PRES REMARKS GEORGETOWN FAIR 63 46 55 W7 29.64F KINGSTREE FAIR 59 50 72 CALM 29.65S ORANGEBURG CLEAR 58 50 75 CALM 29.67R BARNWELL FAIR 59 54 82 CALM 29.69R AIKEN FAIR 55 46 71 CALM 29.71S MANNING FAIR 55 48 76 CALM 29.66S COLUMBIA CLEAR 59 50 72 W5 29.66R SUMTER CLEAR 62 46 56 W6 29.64R FLORENCE CLOUDY 66 48 52 W6 29.65R MYRTLE BEACH PTCLDY 66 50 55 NW8 29.64S N MYRTLE BEACH CLEAR 67 53 61 W5 29.62S $$ GAZ063-065-086>088-099>101-113>116-118-119-134>141-150-050400- ...SOUTHEAST GEORGIA... CITY SKY/WX TMP DP RH WIND PRES REMARKS SAVANNAH ARPT PTCLDY 64 49 57 NW6 29.69R HUNTER AAF CLEAR 66 51 58 W8 29.66R FORT STEWART CLEAR 64 49 58 W3 29.68R STATESBORO CLEAR 59 56 91 CALM 29.70S SYLVANIA CLEAR 58 54 85 CALM 29.70S CLAXTON FAIR 57 56 98 CALM 29.71S ...CSRA...CENTRAL AND FAR SOUTHEAST GEORGIA... CITY SKY/WX TMP DP RH WIND PRES REMARKS THOMSON CLEAR 57 54 91 CALM 29.74S AUGUSTA-BUSH CLEAR 58 48 69 W6 29.68R AUGUSTA-DANIEL CLEAR 65 44 46 VRB3 29.69R SWAINSBORO FAIR 55 50 82 CALM 29.72R VIDALIA CLEAR 63 50 63 W3 29.72S EASTMAN FAIR 60 49 66 CALM 29.76S HAZLEHURST FAIR 63 50 63 CALM 29.72S ALMA CLEAR 59 52 77 CALM 29.72R WAYCROSS CLEAR 62 51 67 NW7 29.72R JESUP FAIR 64 54 68 NW5 29.71S BAXLEY FAIR 64 52 63 NW5 29.71S BRUNSWICK CLEAR 72 54 53 NW5 29.69F SAINT SIMONS CLEAR 68 52 56 NW8 29.69R $$ SCZ027-028-034-036>038-045-046-048>050-GAZ119-141-050400- ...LAKE AND SUPPLEMENTAL COASTAL OBSERVATIONS... STATION/POSITION TIME TEMP WIND PRES WAVE SWELL AIR SEA DIR/SP/G HT/PER HT/PER/DIR (UTC) (F) (DEG/KT/KT) (MB) (FT/S) (FT/S/D) WINYAH BAY 0245 68 290/ 5 1003.0R LAKE MURRAY 0200 64 290/ 2/ 3 1004.1R ACE BASIN NERRS 0200 67 300/ 1 1004.0S FORT PULASKI 0300 75 1005.1R SAPELO ISLAND 0300 67 310/ 8 1005.0S $$ ANZ835-935-AMZ111-154-330-350-352-354-370-450-454-472-050400- ...C-MAN AND BUOY OBSERVATIONS... STATION/POSITION TIME TEMP WIND PRES WAVE SWELL AIR SEA DIR/SP/G HT/PER HT/PER/DIR (UTC) (F) (DEG/KT/KT) (MB) (FT/S) (FT/S/D) BUOY 41004 0250 74 74 280/ 16/ 17 1002.5F 3/ 4 2/ 7 BUOY 41008 NOT AVBL FOLLY BEACH CMAN 0300 65 290/ 4/ 6 1004.2S CAPERS NEARSHORE 0208 72 71 300/ 10/ 12 1003.6R FRIPP NEARSHORE 0308 71 71 320/ 14/ 16 1003.8R STATION/POSITION TIME TEMP WIND PRES WAVE SWELL AIR SEA DIR/SP/G HT/PER HT/PER/DIR (UTC) (F) (DEG/KT/KT) (MB) (FT/S) (FT/S/D) 5E ST. MARYS GA 0251 72 N/A 2/ 5 FRYING PAN BUOY 0300 72 71 250/ 14/ 16 1002.0F BUOY 41025 0250 64 70 30/ 14/ 17 1002.5S 4/ 7 2/160/ 7 CAPE LOOKOUT NC 0300 69 340/ 3/ 3 1001.8S BUOY 41002 0250 74 74 240/ 17/ 19 1003.4F 5/ 6 2/140/ 9 BUOY 41010 0220 73 78 200/ 16/ 21 1004.5R ST AUGUSTINE FL 0300 68 71 270/ 6/ 8 1005.4F $$

USA.gov is the U.S. government's official web portal to all federal, state and local government web resources and services.